Location: Alpha Ridge Park
(39.3209°N, 76.9128°W)
Time: 17:25:23
(UTC-04:00)

S-56A Canister/Altair - Pass Details

Date: 25 May 2019
Orbit: 633 x 2499 km, 38.9° (Epoch: 19 June)

Event Time Altitude Azimuth Distance (km) Brightness Sun altitude
Rises 07:12:18 0° 284° (WNW) 4,391 10.9 14.5°
Reaches altitude 10° 07:14:58 10° 279° (W) 3,640 10.5 15.0°
Maximum altitude 07:24:22 52° 207° (SSW) 2,302 9.9 16.8°
Drops below altitude 10° 07:37:34 10° 137° (SE) 4,994 12.2 19.3°
Sets 07:41:54 0° 133° (SE) 6,112 12.6 20.1°
